Voltar ao catálogo

DELTA 1 DEB

AtivoSSO
NORAD 7132·DEBRIS·🇺🇸 United States

Lançado Nov 6, 1973 de Vandenberg Space Force Base

Loading…

Próximas Passagens (próximas 24 horas)

TLE

AtualizadoSource: Space-Track

Época: Sep 14, 2026, 10:54 UTC

1 07132U 73086CW  26257.45471205  .00000049  00000-0  70185-3 0  9994
2 07132 102.2299 240.0826 0020106 188.8266 323.3302 12.41409013390766

Acompanhe DELTA 1 DEB em tempo real com AllMySat

Download on the App Store